sat.trackr.live / text

‹ back to catalog

STARLINK-5108

NORAD 53992 · 2022-125AE

PAYLOAD ACTIVE UNKNOWN

§ Identity

Operator
Country
US
Launch date
2022-10-05
Launch site
AFWTR
Launch vehicle
Mass (kg)
RCS (m²)

Purposes: comms

External: N2YO · Heavens-Above · Gunter

§ Orbital elements

Epoch: 2026-05-25T04:53:49.939008Z

Period
95.44 min
Inclination
53.2139°
Eccentricity
0.0001260
Mean motion
15.08826209 rev/d
Perigee alt
538.9 km
Apogee alt
540.7 km
Semi-major
6,917.9 km
B*
-2.6659e-5
RAAN
230.6323°
Arg perigee
78.3516°
Mean anomaly
281.7617°
Rev number
20,100

§ Raw data

STARLINK-51081 53992U 22125AE  26145.20405022 -.00000712  00000+0 -26659-4 0  99962 53992  53.2139 230.6323 0001260  78.3516 281.7617 15.08826209201007

JSON: /api/v1/satellites/53992 · /tle

For live sub-satellite position, see the globe view (requires WebGL).

§ Visibility from observer

Set your observer location to see the next 7 days of passes ≥ 10°. The values pass through the URL so the page stays shareable.

No JS? Fill the form by hand. The geolocation button needs JavaScript.